Vertical_Velocity
4 -0 -5 -2 3 22 -3 -4 12 -5 2 3 -4 3 -3 -1 -0 0 -1 2 1 -3 2 -1 -0 -3 -5 -4 -3 4 -1 -0 -2 1 2 0 6 3 5 4 3 -0 -4 7
3 0 -5 0 4 23 -5 6 9 4 2 -4 3 -2 -4 -0 -0 0 2 1 -0 -1 -1 -1 -0 -0 -2 -0 -0 2 1 -2 -0 0 -12 5 3 6 -0 -4 -3 0 -1 7
-1 1 -5 -2 4 10 17 12 -2 -1 -2 -0 0 -1 -0 0 -1 2 2 0 -1 1 -3 0 -1 -0 -2 -4 2 3 1 1 1 2 2 -1 0 2 1 -2 -5 7 4 8
1 -1 -6 -2 2 1 7 4 -3 0 -8 -6 1 -0 1 -1 -2 1 0 1 -2 1 -1 -0 -1 -1 1 0 -7 2 -1 -2 -4 -0 -2 0 4 0 4 -6 -1 -6 8 0
5 1 -2 1 -6 0 -4 -1 -3 -5 3 2 5 1 -2 -1 1 1 1 2 -2 1 -2 1 0 -1 1 2 3 -1 -0 2 3 -0 3 9 3 -2 2 -1 7 0 4 -7
-4 2 -1 1 -1 -5 -1 -3 -4 3 -3 1 2 -1 -1 1 4 1 -1 0 1 -0 -1 -0 -1 -5 -0 -1 1 0 -0 0 -1 -2 -2 -2 -10 -0 4 2 5 3 -4 3
-5 1 -0 -6 -18 -12 -4 8 3 1 1 1 4 -1 -1 3 1 -0 -1 1 0 -1 -0 -1 -0 -1 -2 -2 2 0 1 1 -0 1 -0 -0 -1 -5 1 2 2 -1 -4 -3
-1 -5 -6 -6 -4 -1 3 -2 2 -0 -1 2 -1 -2 0 -1 2 -1 4 2 -0 -1 -2 -3 -2 1 -0 -2 -0 0 0 -3 1 1 -1 0 -1 -2 -2 -2 -1 -0 -1 -4
-1 -13 -8 -2 3 -6 1 2 2 2 1 -0 -1 1 -0 -1 -0 -0 -1 0 -0 -0 -0 -0 -0 1 -1 -1 -3 -2 -2 -1 -1 -1 -1 0 -1 6 -3 -7 1 -1 -0 2
-3 -3 -4 -0 0 2 3 -0 -0 3 1 1 -1 -0 -1 -2 -0 -1 1 -2 -1 -1 -2 1 0 -1 -2 -0 1 -2 0 -1 -1 -0 0 -3 -2 -3 -0 -3 1 3 3 1
5 0 2 -1 -2 -1 -2 -3 0 2 1 0 1 -0 1 1 -1 0 -0 -1 -2 -1 -2 -1 -0 -1 -0 1 -2 -3 0 0 -2 -2 -2 1 -1 -2 -2 -2 -2 -4 -5 -6
-2 -4 -4 -3 -4 -2 -2 2 2 2 2 1 0 0 -1 -1 1 1 0 1 -1 -1 -1 -1 -1 -1 -1 -1 1 -2 -1 -3 -1 -2 -3 -1 -2 -2 -0 -2 -0 2 2 0
-1 2 -2 -1 1 2 2 1 3 0 -1 -2 -0 -2 -1 0 -1 0 0 -0 -0 -1 -1 -1 0 -1 -2 -1 -3 -1 -4 -1 -1 -2 -3 -3 -1 0 3 -1 2 -1 -5 -6
2 1 2 1 -1 3 -0 1 1 1 -2 -1 -3 0 -1 0 -0 0 1 -1 -1 -0 -1 -0 -0 0 -1 -2 -2 -2 -2 -3 -3 -3 -1 -0 -4 -4 -5 -4 -3 -5 -4 -1
-6 1 -2 1 2 3 -1 0 -2 -0 -1 -2 -2 1 -1 -1 -1 0 1 -1 -0 -1 -1 -0 -0 -0 -0 -0 -0 -4 -1 -2 -5 -2 -2 2 -3 -2 -0 -1 0 -2 -1 -3
1 -3 2 2 -1 3 -0 -0 -1 0 0 1 -5 -1 -2 -1 -1 0 -0 -0 -1 -1 -0 -0 -1 -0 -0 -0 -2 -3 -2 -4 -3 -4 -2 -0 -5 -2 -0 1 -3 -1 -2 -3
1 1 -4 2 0 1 -2 -4 -1 -1 2 0 -2 -2 -3 -1 -1 -0 -1 -1 0 -0 -0 -1 -1 -1 0 -2 -3 -3 -1 -2 -2 -3 -3 -4 -4 -4 -4 -4 -4 -2 -4 -2
-1 -0 1 -3 -2 -1 -2 -2 -1 -0 1 0 -1 -1 -0 -1 -1 -1 -2 -1 -0 -1 -1 -1 -1 -1 -1 -5 -1 -2 -2 -2 -2 -3 -3 -1 -2 -3 -2 -3 -3 -3 -6 -4
0 3 4 1 -1 2 -2 -2 -2 -0 -1 -1 -1 -1 -1 -0 -0 -1 -1 -0 -1 -1 -2 -0 -3 -1 -8 -2 -2 -1 -2 -1 -2 -2 -3 -4 -2 -4 -3 -3 -2 -3 -2 -1
4 7 3 6 2 1 -1 -3 -0 -1 -4 -3 -2 -1 -1 -0 2 1 -1 -1 -1 -1 -2 -0 -4 -17 6 -0 -2 -1 -1 -1 -2 -2 -2 -3 -1 -3 -0 -1 -2 -2 -2 1
2 3 4 -3 -1 1 1 -2 -1 -4 -2 -3 -4 -1 -1 -1 1 1 -0 -1 0 -1 -1 -2 -2 -6 -1 -5 -1 -0 0 -1 -2 -1 -1 0 -1 -1 1 -0 -2 -4 -1 0
2 2 6 4 5 -4 -2 0 -6 -1 -4 -3 -2 -0 -1 -2 0 -2 -2 -2 -0 -0 0 -2 -4 1 -2 -1 -0 -0 1 -1 -1 -1 -1 -0 -0 1 1 -1 -1 -2 -0 -1
2 0 -2 -1 -2 7 -2 -1 -3 -8 -3 -3 -0 -2 -1 0 0 -2 -1 0 0 -1 -1 -4 -4 -2 -2 -1 -0 -1 -1 -2 -1 -1 -2 -1 0 -0 -0 -1 -1 -1 -1 0
3 -1 -1 -7 -0 -2 -14 -12 -10 -6 -0 0 1 4 -1 -1 -2 1 -1 0 -1 -0 -3 -5 -0 -2 -3 -2 -0 -1 0 -1 -3 -1 -1 0 2 0 -1 -1 -2 -1 -1 -1
-0 -5 -5 -8 -6 -0 0 -0 2 3 -1 1 1 3 2 2 -1 -2 -0 -1 -1 -3 -4 -2 -1 -3 -2 -1 -2 -2 -0 0 -0 1 1 1 1 -2 -2 -2 -2 -0 -1 -0
3 -4 -1 -5 -2 -2 -1 -1 -0 2 3 2 3 -1 -1 -2 1 1 0 -1 -4 -2 -1 -1 -2 -2 -2 -2 -2 -2 -0 0 0 1 0 -0 -1 -1 -2 -2 -0 0 0 -0
2 -3 -2 -1 3 -0 -4 -1 -1 3 1 -1 -1 -1 0 0 -1 -3 -4 -7 -0 -2 -1 -1 -1 -0 -1 -0 1 1 0 -0 -1 -1 -2 -0 -0 -1 -1 0 1 0 -2 -2
Height
2963 2966 2970 2973 2976 2979 2984 2990 2995 2998 3001 3006 3008 3012 3015 3017 3018 3019 3020 3022 3022 3022 3023 3024 3024 3025 3026 3023 3021 3020 3020 3018 3016 3014 3011 3008 3005 3003 3001 3000 3005 3004 3008 3019
2956 2961 2965 2969 2971 2973 2979 2985 2992 2996 2999 3003 3006 3011 3014 3015 3016 3018 3020 3021 3022 3022 3024 3025 3024 3025 3026 3024 3023 3022 3022 3021 3019 3016 3016 3012 3010 3007 3005 3005 3007 3010 3010 3025
2951 2956 2961 2965 2968 2972 2979 2985 2990 2995 2997 3000 3005 3009 3012 3013 3014 3017 3020 3021 3022 3022 3024 3024 3025 3026 3026 3025 3024 3023 3023 3024 3022 3024 3023 3020 3015 3012 3010 3009 3012 3017 3022 3025
2946 2952 2958 2962 2966 2971 2977 2983 2988 2992 2993 2998 3004 3008 3009 3011 3013 3016 3019 3021 3022 3023 3024 3024 3025 3026 3026 3027 3026 3025 3025 3026 3026 3026 3025 3025 3024 3022 3020 3017 3018 3021 3026 3024
2943 2948 2952 2959 2964 2970 2976 2982 2988 2992 2996 3001 3004 3006 3007 3010 3013 3016 3018 3020 3021 3023 3024 3026 3026 3026 3027 3028 3028 3027 3027 3028 3029 3029 3030 3031 3030 3031 3029 3027 3028 3027 3029 3029
2940 2945 2950 2956 2961 2969 2972 2981 2988 2994 2997 3000 3002 3004 3008 3010 3013 3017 3018 3020 3022 3023 3025 3026 3027 3027 3027 3028 3027 3027 3028 3029 3029 3030 3029 3029 3031 3031 3031 3032 3031 3030 3031 3035
2937 2942 2947 2952 2962 2968 2977 2984 2991 2997 2999 3000 3001 3003 3007 3010 3013 3017 3019 3021 3023 3025 3025 3027 3028 3029 3029 3029 3028 3028 3028 3029 3029 3030 3030 3033 3038 3035 3033 3032 3033 3034 3036 3038
2933 2936 2942 2950 2958 2968 2978 2986 2994 2997 2998 3000 3001 3003 3006 3009 3014 3017 3019 3022 3024 3025 3027 3029 3030 3032 3033 3032 3029 3029 3030 3029 3029 3031 3031 3035 3035 3035 3036 3036 3038 3038 3040 3042
2929 2934 2942 2951 2962 2969 2981 2988 2994 2997 2999 3000 3002 3004 3006 3010 3014 3018 3020 3022 3024 3026 3028 3030 3031 3032 3033 3033 3033 3032 3032 3031 3032 3031 3033 3034 3035 3036 3037 3038 3040 3040 3040 3040
2932 2941 2949 2957 2967 2975 2983 2990 2996 2999 3000 3000 3002 3004 3007 3011 3015 3019 3021 3023 3025 3028 3029 3029 3031 3031 3032 3033 3033 3032 3033 3034 3033 3033 3034 3036 3034 3035 3036 3039 3044 3040 3041 3042
2938 2944 2953 2962 2970 2978 2986 2993 2997 3000 3001 3002 3003 3005 3009 3013 3017 3020 3023 3026 3026 3028 3029 3030 3030 3030 3031 3032 3032 3032 3033 3035 3035 3036 3036 3038 3037 3039 3041 3041 3040 3042 3043 3045
2941 2948 2957 2967 2975 2982 2990 2996 2999 3001 3003 3003 3004 3006 3010 3015 3019 3021 3023 3025 3026 3027 3029 3030 3030 3030 3030 3031 3032 3032 3034 3035 3035 3037 3036 3036 3037 3039 3040 3041 3041 3042 3044 3044
2950 2957 2966 2973 2980 2987 2994 2998 3000 3003 3003 3004 3006 3007 3012 3016 3019 3022 3024 3026 3026 3027 3029 3029 3030 3030 3030 3030 3030 3031 3031 3032 3034 3037 3036 3037 3037 3038 3039 3040 3041 3042 3043 3043
2957 2963 2970 2978 2985 2990 2996 2999 3001 3004 3005 3005 3008 3010 3013 3016 3019 3022 3024 3026 3027 3028 3028 3029 3029 3030 3030 3029 3030 3029 3030 3031 3032 3034 3035 3037 3038 3039 3039 3040 3041 3041 3041 3041
2960 2966 2974 2982 2989 2994 2998 3001 3003 3005 3009 3007 3009 3012 3014 3016 3019 3022 3023 3025 3026 3027 3028 3028 3028 3028 3028 3027 3028 3026 3026 3028 3030 3031 3033 3035 3036 3036 3037 3038 3039 3040 3040 3040
2965 2971 2979 2986 2992 2996 3000 3003 3005 3006 3008 3009 3010 3014 3014 3017 3019 3021 3023 3024 3025 3026 3027 3027 3027 3027 3028 3026 3025 3025 3025 3026 3027 3030 3031 3033 3033 3034 3035 3036 3036 3036 3036 3036
2968 2975 2982 2989 2994 2996 3001 3005 3006 3008 3009 3010 3012 3012 3014 3016 3018 3020 3022 3023 3024 3025 3025 3025 3026 3026 3026 3024 3022 3023 3024 3024 3026 3027 3029 3030 3031 3032 3033 3033 3033 3032 3032 3032
2970 2977 2984 2989 2994 2998 3002 3004 3007 3009 3010 3011 3011 3011 3012 3015 3016 3019 3021 3022 3023 3024 3024 3024 3024 3024 3023 3020 3019 3020 3021 3022 3024 3025 3027 3028 3029 3030 3030 3030 3030 3030 3030 3029
2974 2980 2985 2990 2994 2998 3002 3005 3008 3009 3013 3010 3009 3010 3012 3013 3015 3018 3020 3022 3022 3022 3021 3021 3022 3019 3017 3017 3017 3018 3019 3021 3022 3023 3024 3025 3026 3027 3028 3028 3027 3026 3026 3024
2975 2981 2985 2990 2994 2999 3004 3007 3008 3009 3008 3009 3007 3009 3009 3012 3013 3016 3020 3020 3021 3019 3019 3017 3015 3010 3013 3014 3015 3015 3016 3018 3019 3020 3021 3022 3023 3024 3024 3024 3024 3023 3021 3020
2972 2978 2984 2990 2995 3001 3005 3006 3006 3006 3005 3003 3004 3007 3008 3011 3013 3016 3019 3018 3018 3016 3015 3015 3009 3005 3006 3008 3010 3012 3013 3015 3016 3017 3018 3019 3019 3020 3020 3020 3020 3019 3017 3015
2976 2980 2986 2991 2998 3001 3002 2999 3001 2998 3000 2998 2999 3004 3007 3009 3011 3014 3016 3016 3015 3013 3011 3010 3003 3003 3003 3003 3005 3008 3009 3011 3013 3014 3015 3016 3016 3016 3016 3015 3014 3013 3012 3009
2974 2980 2986 2991 2994 2992 2989 2986 2988 2990 2990 2993 2996 2999 3003 3007 3010 3012 3012 3011 3011 3009 3006 3001 2998 2998 2999 3000 3002 3003 3005 3007 3009 3010 3011 3012 3012 3011 3011 3010 3009 3008 3006 3003
2972 2977 2981 2983 2979 2976 2977 2981 2984 2988 2989 2991 2994 2996 3000 3003 3006 3008 3008 3007 3006 3002 2998 2993 2993 2994 2995 2997 2998 2999 3001 3004 3005 3006 3007 3007 3007 3006 3006 3004 3003 3001 2999 2996
2967 2971 2970 2968 2969 2970 2972 2976 2979 2983 2987 2990 2991 2995 2998 3001 3003 3003 3002 3000 2996 2992 2989 2990 2990 2991 2992 2993 2995 2997 2998 2999 3001 3002 3003 3002 3002 3002 3000 2999 2997 2994 2992 2990
2961 2961 2959 2961 2965 2967 2969 2972 2975 2978 2982 2986 2989 2992 2995 2996 2996 2994 2992 2991 2987 2986 2986 2988 2988 2989 2990 2991 2993 2994 2995 2996 2997 2997 2997 2997 2997 2996 2994 2993 2990 2988 2986 2983
2950 2950 2954 2956 2959 2963 2965 2967 2970 2974 2977 2980 2983 2984 2987 2988 2987 2985 2983 2982 2984 2984 2985 2986 2986 2987 2988 2989 2990 2991 2991 2992 2992 2993 2993 2993 2992 2990 2989 2987 2984 2982 2980 2978